EDT,Max TemperatureF,Mean TemperatureF,Min TemperatureF,Max Dew PointF,MeanDew PointF,Min DewpointF,Max Humidity, Mean Humidity, Min Humidity, Max Sea Level PressureIn, Mean Sea Level PressureIn, Min Sea Level PressureIn, Max VisibilityMiles, Mean VisibilityMiles, Min VisibilityMiles, Max Wind SpeedMPH, Mean Wind SpeedMPH, Max Gust SpeedMPH,PrecipitationIn, CloudCover, Events, WindDirDegrees
2013-9-1,79,72,64,70,67,64,97,89,71,29.83,29.81,29.79,10,6,0,9,3,,0.09,5,Fog-Rain,248
2013-9-2,79,70,61,69,62,54,98,77,41,29.97,29.87,29.79,10,5,0,13,5,18,0.03,4,Fog-Rain,321
2013-9-3,72,60,47,56,52,46,96,76,50,30.09,30.04,29.97,10,9,5,14,4,17,0.00,3,,345
2013-9-4,79,64,48,60,54,47,97,76,40,30.17,30.13,30.08,10,7,1,9,2,16,0.00,0,,285
2013-9-5,80,66,53,60,55,44,98,72,40,30.23,30.19,30.14,10,8,4,8,2,,0.00,0,,54
2013-9-6,79,64,49,57,49,44,90,61,31,30.27,30.20,30.11,10,9,7,10,4,,0.00,0,,128
2013-9-7,86,71,56,65,58,51,84,67,37,30.10,30.04,29.96,10,9,5,14,5,20,0.00,2,Rain,223
2013-9-8,83,72,60,66,63,59,97,75,52,30.02,30.00,29.96,10,8,2,14,4,17,0.00,2,,81
2013-9-9,91,76,62,69,65,61,96,71,41,30.03,29.99,29.93,10,7,4,15,7,23,0.00,1,,190
2013-9-10,95,83,71,72,66,56,94,63,28,30.12,30.07,29.99,10,7,2,14,7,22,0.00,1,,230
2013-9-11,93,82,70,70,63,57,91,59,29,30.14,30.08,30.01,10,8,3,14,7,22,0.00,0,,237
2013-9-12,81,71,60,70,61,46,97,73,34,30.02,29.98,29.88,10,8,2,17,5,26,0.42,4,Rain,292
2013-9-13,64,56,48,52,44,39,89,64,38,30.14,30.09,30.01,10,9,4,15,6,20,0.11,2,,14
2013-9-14,68,52,37,47,39,30,97,66,25,30.21,30.15,30.11,10,9,4,6,1,,0.04,0,,85
2013-9-15,74,59,44,56,46,40,95,70,29,30.14,30.10,30.02,10,9,2,13,3,17,0.10,3,Rain,191
2013-9-16,63,56,48,55,52,47,96,84,61,30.32,30.26,30.12,10,7,3,10,4,,0.09,7,Rain,61
2013-9-17,72,58,45,51,47,44,95,71,40,30.36,30.29,30.18,10,8,5,9,6,,0.01,0,,90
2013-9-18,79,68,57,63,54,48,88,65,36,30.18,30.11,30.04,10,9,7,9,4,,0.01,3,Rain,165
2013-9-19,75,69,63,69,66,63,98,89,72,30.08,30.03,29.93,10,7,1,15,7,21,0.65,6,Rain,185
2013-9-20,77,71,65,68,66,64,97,87,64,29.96,29.88,29.81,10,7,1,14,9,20,0.13,6,Rain,229
2013-9-21,70,59,48,65,50,42,98,74,36,29.93,29.83,29.78,10,9,7,15,7,22,0.04,3,,320
2013-9-22,66,56,45,51,44,39,99,71,37,30.04,29.99,29.93,10,9,5,9,2,,0.02,2,,32
2013-9-23,68,55,42,45,43,41,96,68,38,30.14,30.09,30.05,10,10,7,9,6,,0.01,0,,94
2013-9-24,71,58,44,46,44,42,95,65,36,30.11,30.03,29.95,10,9,5,9,6,,0.01,0,,97
2013-9-25,74,61,48,50,47,42,95,66,32,29.98,29.94,29.91,10,8,4,10,5,,0.00,0,,66
2013-9-26,77,62,47,55,49,45,99,71,33,30.11,30.05,29.96,10,7,0,8,4,,0.01,1,Fog,73
2013-9-27,78,62,46,50,45,37,95,60,22,30.21,30.15,30.11,10,9,5,8,5,,0.00,0,,83
2013-9-28,80,64,49,53,50,47,95,64,31,30.18,30.11,30.03,10,8,5,13,6,20,0.00,0,,167
2013-9-29,63,58,53,62,58,53,99,91,72,30.04,30.01,29.99,10,5,0,8,5,,0.04,7,Fog-Rain,218
2013-9-30,74,64,53,63,55,51,100,85,43,30.04,30.00,29.94,10,4,0,14,2,20,0.01,6,Fog,224